Location: Vigo
(43.5670°N, 6.6330°W)
Time: 12:10:16
(UTC+02:00)

ISS - Pass Details

Date: 03 June 2020
Orbit: 417 x 421 km, 51.6° (Epoch: 07 July)

Event Time Altitude Azimuth Distance (km) Brightness Sun altitude
Rises 23:44:07 0° 289° (WNW) 2,377 1.1 -14.5°
Reaches altitude 10° 23:46:49 10° 266° (W) 1,508 -0.5 -14.8°
Maximum altitude 23:48:55 16° 228° (SW) 1,205 -1.5 -15.0°
Enters shadow 23:50:03 14° 204° (SSW) 1,296 -1.6 -15.2°
